Notices

What's New in latest Release from April 7th, 2021:

- Updated Glossary, including Speed of Maximum Gust, and Total Hourly Precipitation

- Updated national and regional climate services offices contacts and prices information

- Addition of station inventory lists for 1981-2010, 1971-2000, and 1961-1990 Normals.

If you haven't already, please take our survey and provide feedback about our website: https://eccc.sondage-survey.ca/f/LanguageSelection.aspx?s=442ca660-fcf1-47c0-95a9-59707d6fd709

Hourly Data Report for January 29, 2021

EDMUNDSTON
NEW BRUNSWICK
Current Station Operator: ECCC - MSC

47°25'00.000" N
68°19'28.040" W
154.20 m
8101303
71590
ERM

Download Data

Hourly Data (January 2021)
Hourly Data Report for January 29, 2021
TIME
LST
Temp Definition
°C
Dew Point Definition
°C
Rel Hum Definition
%
Precip. Amount Definition
mm

Wind Dir Definition
10's deg

Wind Spd Definition
km/h
Visibility Definition
km
Stn Press Definition
kPa
Hmdx Definition


Wind Chill Definition


Weather Definition


00:00 -8.9 -11.1 84 0.0 29 6   99.25   -12 LegendNANA
01:00 -9.4 -11.4 86 0.0 27 5   99.21   -12 LegendNANA
02:00 -9.7 -11.7 85 0.0 27 6   99.17   -13 LegendNANA
03:00 -9.9 -11.9 85 0.0 28 6   99.14   -13 LegendNANA
04:00 -10.0 -12.2 84 0.0 28 7   99.15   -14 LegendNANA
05:00 -10.1 -12.2 85 0.0 27 6   99.19   -14 LegendNANA
06:00 -10.1 -12.1 85 0.0 29 6   99.21   -14 LegendNANA
07:00 -10.3 -12.3 85 0.2 28 8   99.25   -15 LegendNANA
08:00 -10.9 -13.0 85 0.0 29 7   99.30   -15 LegendNANA
09:00 -10.4 -12.8 83 0.0 30 6   99.32   -14 LegendNANA
10:00 -9.5 -12.7 77 0.0 31 13   99.35   -16 LegendNANA
11:00 -9.9 -13.2 77 0.0 30 10   99.40   -15 LegendNANA
12:00 -8.7 -13.1 70 0.0 33 13   99.38   -15 LegendNANA
13:00 -9.2 -14.4 66 0.0 33 18   99.38   -16 LegendNANA
14:00 -9.5 -15.6 61 0.0 34 21   99.37   -17 LegendNANA
15:00 -10.3 -13.5 77 0.0 30 11   99.40   -16 LegendNANA
16:00 -10.9 -14.2 77 0.0 30 12   99.42   -17 LegendNANA
17:00 -11.1 -15.5 71 0.0 31 15   99.51   -18 LegendNANA
18:00 -11.8 -16.0 71 0.0 31 12   99.61   -18 LegendNANA
19:00 -12.4 -16.3 73 0.0 31 9   99.69   -18 LegendNANA
20:00 -13.0 -16.6 74 0.0 30 10   99.75   -19 LegendNANA
21:00 -13.4 -16.6 77 0.0 30 10   99.79   -19 LegendNANA
22:00 -13.6 -16.5 79 0.0 30 7   99.78   -18 LegendNANA
23:00 -13.5 -18.2 68 0.0 31 12   99.80   -20 LegendNANA

Notes on Data Quality.

Legend

  • E = Estimated
  • M = Missing
  • NA = Not Available*
  • [empty] = Indicates an unobserved value
Date modified: